Flag for U.S.A. Weather past 2 weeks in Anderson, South Carolina, U.S.A.

Now
66 °F

Clear.


Feels Like: 66 °F
Forecast: 68 / 85 °F
Wind: No wind

Location: Anderson County Airport

Current Time: May 29, 2015 at 5:35:35 AM

Latest Report: May 29, 2015 at 4:56 AM


Visibility: 7 mi

Pressure: 30.14 "Hg

Humidity: 96%

Dew point: 65 °F

Location of AndersonLocation

Historic Weather in Anderson — Graph

°F

Anderson temperature yesterday

Maximum temperature yesterday: 86 °F (at 12:56 PM)
Minimum temperature yesterday: 65 °F (at 5:56 AM)
Average temperature yesterday: 72 °F

Past Weeks' High & Low Weather Summary

 TemperatureHumidityPressure
High89 °F (May 18, 2:56 PM)97% (May 20, 2:56 AM)30.40 "Hg (May 20, 2:56 AM)
Low56 °F (May 22, 4:56 AM)26% (May 23, 3:56 PM)29.80 "Hg (May 21, 5:56 AM)
Average73 °F67%30.17 "Hg
* Reported May 14 3:56 AM — May 29 3:56 AM, Anderson, Weather by CustomWeather, © 2015

Note: Actual official high and low records may vary slightly from our data, if they occured in-between our weather recording intervals... More about our weather records

Advertising

Anderson weather history for previous 24 hours

 ConditionsComfort  
Time TempWeatherWind HumidityBarometerVisibility
3:56 AM
Fri, May 29
67 °FPassing clouds.No wind93%30.14 "Hg10 mi
2:56 AM67 °FClear.5 mph97%30.15 "Hg10 mi
1:56 AM68 °FPartly cloudy.6 mph93%30.18 "Hg10 mi
12:56 AM67 °FClear.No wind97%30.17 "Hg8 mi
11:56 PM
Thu, May 28
69 °FClear.No wind93%30.19 "Hg10 mi
10:56 PM69 °FClear.5 mph93%30.20 "Hg10 mi
9:56 PM69 °FClear.5 mph93%30.18 "Hg10 mi
8:56 PM70 °FSunny.No wind93%30.16 "Hg10 mi
7:56 PM71 °FPassing clouds.5 mph90%30.17 "Hg10 mi
6:56 PM71 °FLight rain. Partly sunny.5 mph90%30.18 "Hg9 mi
5:56 PM70 °FLight rain. Broken clouds.8 mph93%30.18 "Hg10 mi
4:56 PM72 °FPartly sunny.8 mph84%30.17 "Hg10 mi
3:56 PM75 °FOvercast.8 mph76%30.16 "Hg10 mi
3:03 PM76 °FMostly cloudy.14 mph74%30.19 "Hg10 mi
1:56 PM83 °FSunny.8 mph57%30.16 "Hg10 mi
12:56 PM86 °FPassing clouds.9 mph51%30.18 "Hg10 mi
11:56 AM83 °FPartly sunny.5 mph55%30.20 "Hg10 mi
10:56 AM83 °FPassing clouds.7 mph59%30.20 "Hg10 mi
9:56 AM78 °FSunny.No wind71%30.20 "Hg10 mi
8:56 AM74 °FSunny.3 mph82%30.20 "Hg10 mi
7:56 AM70 °FSunny.3 mph90%30.18 "Hg10 mi
6:56 AM65 °FClear.3 mph97%30.18 "Hg9 mi
5:56 AM65 °FClear.7 mph97%30.15 "Hg10 mi
Weather by CustomWeather, © 2015

See weather overviewHow to use our weather pages